Погода в Керчи

Погода в Керчи : погода сейчас, прогноз погоды и архив. Всё, что Вы хотите узнать о погоде в Керчи!

Поиск расширенной информации на нашем сайте:

Другие новости

Новости СМИ2

Главная страница сайта

Новости сайта

03.07.2017

Напоминаем, что на нашем специализированном сайте Метеоцентр.Азия вы можете получить высокодетализированные автоматические прогнозы погоды по пунктам России, СНГ и мира в авиационном формате (включающие направление и скорость ветра, видимость, явления погоды, количество и форму облачности, нижнюю и верхнюю границу облачности).


Погода в Керчи - сегодня

Время (UTC), дата Ветер
(°,м/с) 
Видим.   Явления Облачность Т
(°С)
Тd
(°С)
f(%) Тe
(°С)
Pmin
(гПа)
dP
(гПа)
Po
(мм)
O2
(г/м3)
Тmin Tmax R s Состояние
почвы
18 06.02.18 тихо ()   10 км    ясно 
+0 -2.1 86 1028.6  0.9  767  309    +4.7       
21 06.02.18 тихо ()   10 км    ясно 
-1.5 -3.6 86 -2  1029.4  0.8  767  311           
00 07.02.18 тихо ()   10 км    ясно 
-3.3 -5.1 87 -3  1030.4  0.9  768  314           
03 07.02.18 тихо ()   4000 м  дымка  ясно 
-4.9 -6.3 90 -5  1030.9  0.5  768  316  -5.4         
06 07.02.18 070 (В) 10 км    1/0 верхняя 
[Ci fib]
-1.2 -2.3 92 -1  1031.7  0.9  769  312  -6.1         
09 07.02.18 070 (В) 10 км    ясно 
+4 +0.6 78 +2  1031.6  769  305           
12 07.02.18 070 (В) 10 км    3/0 верхняя 
[Ci fib]
+4.7 +0.6 75 +3  1030.1  -1.5  768  304           
15 07.02.18 060 (СВ) 10 км    4/0 средняя, верхняя 
[Ac trans|Ci fib]
+2.2 +0.6 89 1029  -1.1  767  307           
18 07.02.18 070 (В) 4000 м  дымка  8/0 средняя, верхняя 
[Ac trans|Ci fib]
+2.2 +1.2 93 1028.3  -0.7  767  306    +5.8       
21 07.02.18 080 (В) 4000 м  дымка  8/6 300 м средняя 
[Sc|Ac trans]
+2.5 +1.7 94 1026.5  -1.8  765  305           
00 08.02.18 080 (В) 2000 м  дымка  10/10 300 м 
[Sc]
+1.9 +1.4 96 1024.7  -1.8  764  305           
03 08.02.18 090 (В) 0200 м  туман  ?/?  
+1.6 +1.6 100 +1  1023  -1.7  763  305  +1.5         
06 08.02.18 080 (В) 0200 м  туман  ?/?  
+1.6 +1.6 100 1021.3  -1.7  761  305  +1.1         
09 08.02.18 080 (В) 4000 м  дымка{туман}  10/8 100 м средняя 
[St|Ac und]
+3.1 +2.4 95 +2  1020.7  -0.6  761  303           
12 08.02.18 110 (В) 10 км  {туман}  9/3 300 м средняя 
[Sc|Ac trans]
+6.3 +2.9 79 +5  1017  -3.6  758  298           
15 08.02.18 100 (В) 10 км    10/3 600 м средняя 
[Sc|Ac und]
+5.7 +3.3 85 +4  1014.9  -2.1  757  298           
18 08.02.18 100 (В) 10 км    10/3 600 м средняя 
[Sc|Ac und]
+6.7 +2.9 77 +6  1013.3  -1.5  755  297    +7.3       
21 08.02.18 120 (ЮВ) 10 км  в посл. час ливневой дождь  10/6 600 м кучево-дожд., средняя 
[Cb cap|Ac und]
+5.3 +3.9 91 +5  1011.9  -1.5  754  298           
00 09.02.18 160 (Ю) 4000 м  слаб. ливневой дождь  10/8 600 м кучево-дожд., средняя 
[Cb cap|Ac und]
+6 +5.3 95 +6  1011.1  -0.7  754  296           
03 09.02.18 280 (З) 2000 м  дымка{ливн. осадки}  10/8 300 м кучево-дожд., средняя 
[Cb cap|Ac und]
+6.6 +5.9 95 +5  1011.6  0.5  754  296  +5.1         
06 09.02.18 290 (З) 10 км  {ливн. осадки}  4/3 300 м верхняя 
[Sc|Ci fib]
+5.8 +4.4 91 +4  1012.8  1.1  755  297  +5.1       
09 09.02.18 310 (СЗ) 6{10}  10 км    8/8 300 м 
[Sc]
+8.6 +4.9 78 +7  1013.7  756  294           
12 09.02.18 360 (С) 10 км    6/6 600 м 
[Sc]
+8.9 +3.8 70 +8  1013.7  756  294           
15 09.02.18 150 (ЮВ) 10 км    8/8 600 м 
[Sc]
+6.9 +3.9 81 +6  1014.8  757  297           
18 09.02.18 080 (В) 10 км    8/8 300 м 
[Sc]
+5.7 +4.3 91 +7  1015  0.2  757  298    +10.9       
Время (UTC), дата Ветер
(°,м/с) 
Видим.   Явления Облачность Т
(°С)
Тd
(°С)
f(%) Тe
(°С)
Pmin
(гПа)
dP
(гПа)
Po
(мм)
O2
(г/м3)
Тmin Tmax R s Состояние
почвы

Для получения пояснительной информации подведите курсор к названию столбца.

ПОГОДА в Керчи - архив

Всё, что Вы хотите узнать о погоде в Керчи - удобно и подробно!

Выберите нужную дату (начиная с 1 января 2015* года) и нажмите кнопку "Найти".
Будут отображены архивные сводки погоды по пункту Керчь, начиная с указанной даты.


Отображать данные в формате CSV (для использования в таблицах Excel)


Внимание! Наш архив погоды предназначен исключительно для личного некоммерческого использования в познавательных целях. Если Вам необходимы официальные справки о состоянии погоды (для производственных, юридических, коммерческих и т.п. целей), обращайтесь в органы Росгидромета.

*Примечание: данная дата относится к архиву по метеостанциям СССР (Россия, СНГ, Балтия).
Архив по метеостанциям Зарубежной Европы и Азии (кроме Китая) хранится 10 дней, по другим регионам земного шара (Китай, Африка, Америка, Австралия, Океания) - 1 день.

Керчь - район местоположения метеостанции


Название, широта, долгота, высота метеостанции:
Керчь 45.4°ш. 36.4°д. 49 м над ур. моря [Российская Федерация]

Дополнительная информация

В oтличие oт бoльшинства пoгoдных сайтoв мы публикуем пoдрoбную метеoинфoрмацию в детальнoм прoфессиoнальнoм фoрмате.

Характеристики температуры и влажнoсти вoздуха измеряются на высoте 2 м в тени вдали oт зданий и деревьев.
Скoрoсть ветра измеряется на высoте 10 м (на урoвне рoста челoвека скoрoсть ветра ниже в 1.5-2 раза). Если метеoстанция нахoдится в гoрoде или в лесу, тo скoрoсть ветра занижена на 2-4 м/с пo сравнению с oткрытым местoм. Скoрoсть ветра над акватoриями крупных рек и oзёр, а также на вершинах хoлмoв на 2-5 м/с выше, чем в oбычных услoвиях.
Атмoсфернoе давление в разных тoчках местнoсти мoжет значительнo oтличаться oт давления на метеoстанции, в зависимoсти oт услoвий рельефа (при пoдъёме на 10 м давление пoнижается примернo на 1 мм рт.ст.).